Weather History for KCLE - January, 2013

Change the Weather History Date:

Tuesday, January 8, 2013

  Actual Average Record
Temperature  
Mean Temperature 35 °F 28 °F  
Max Temperature 41 °F 34 °F 66 °F (1937)
Min Temperature 28 °F 22 °F -10 °F (1968)
Degree Days  
Heating Degree Days 30 37  
Month to date heating degree days 304 295  
Since 1 July heating degree days 2385 2402  
Cooling Degree Days 0 0  
Month to date cooling degree days 0 0  
Year to date cooling degree days 0 0  
Moisture  
Dew Point 24 °F    
Average Humidity 62    
Maximum Humidity 78    
Minimum Humidity 46    
Precipitation  
Precipitation 0.00 in 0.09 in 1.42 in (2008)
Month to date precipitation T 0.78  
Year to date precipitation T 0.78  
Snow  
Snow 0.00 in 0.60 in - ()
Month to date snowfall T 4.7  
Since 1 July snowfall 15.5 23.3  
Snow Depth 1.00 in    
Sea Level Pressure  
Sea Level Pressure 30.30 in    
Wind  
Wind Speed 9 mph (South)    
Max Wind Speed 15 mph    
Max Gust Speed 18 mph    
Visibility 9 miles    
Events      
T = Trace of Precipitation, MM = Missing Value Source: NWS Daily Summary

Daily Weather History Graph

Daily Weather History Graph

Search for Another Location

Airport or City:

Trip Planner

Search our weather history database for the weather conditions in past years. The results will help you decide how hot, cold, wet, or windy it might be!

Date:

Astronomy

Jan. 08, 2013 Rise Set
Actual Time 7:53 AM EST 5:15 PM EST
Civil Twilight 7:22 AM EST 5:46 PM EST
Nautical Twilight 6:47 AM EST 6:20 PM EST
Astronomical Twilight 6:14 AM EST 6:54 PM EST
Moon 4:24 AM EST (1/8) 2:16 PM EST (1/8)
Length of Visible Light 10h 23m
Length of Day
9h 22m
Waning Crescent, 14% of the Moon is Illuminated
Jan 8
Waning Crescent
Jan 11
New
Jan 18
First Quarter
Jan 26
Full
Feb 3
Last Quarter

Hourly Weather History & Observations

Time (EST) Temp. Windchill Dew Point Humidity Pressure Visibility Wind Dir Wind Speed Gust Speed Precip Events Conditions
12:51 AM 28.9 °F 22.8 °F 23.0 °F 78% 30.27 in 8.0 mi South 5.8 mph - N/A   Mostly Cloudy
1:51 AM 28.0 °F 19.3 °F 21.9 °F 78% 30.27 in 8.0 mi South 9.2 mph - N/A   Mostly Cloudy
2:51 AM 28.0 °F 20.0 °F 21.9 °F 78% 30.27 in 8.0 mi South 8.1 mph - N/A   Mostly Cloudy
3:51 AM 28.0 °F 19.3 °F 21.9 °F 78% 30.27 in 8.0 mi South 9.2 mph - N/A   Mostly Cloudy
4:51 AM 28.9 °F 19.2 °F 21.9 °F 75% 30.27 in 9.0 mi SSW 11.5 mph - N/A   Mostly Cloudy
5:51 AM 28.9 °F 20.4 °F 21.9 °F 75% 30.28 in 10.0 mi SSW 9.2 mph - N/A   Mostly Cloudy
6:51 AM 28.9 °F 21.1 °F 21.9 °F 75% 30.29 in 10.0 mi South 8.1 mph - N/A   Mostly Cloudy
7:51 AM 28.9 °F 21.9 °F 21.9 °F 75% 30.31 in 9.0 mi SSW 6.9 mph - N/A   Mostly Cloudy
8:51 AM 28.9 °F 21.1 °F 21.9 °F 75% 30.32 in 8.0 mi South 8.1 mph - N/A   Mostly Cloudy
9:51 AM 30.9 °F 23.5 °F 23.0 °F 72% 30.33 in 9.0 mi SSW 8.1 mph - N/A   Mostly Cloudy
10:51 AM 33.8 °F 26.4 °F 23.0 °F 65% 30.30 in 10.0 mi SSW 9.2 mph - N/A   Mostly Cloudy
11:51 AM 36.0 °F 29.0 °F 24.1 °F 62% 30.32 in 10.0 mi SSW 9.2 mph - N/A   Mostly Cloudy
12:51 PM 37.9 °F 29.2 °F 23.0 °F 55% 30.30 in 10.0 mi SSW 15.0 mph - N/A   Mostly Cloudy
1:51 PM 39.0 °F 33.4 °F 23.0 °F 53% 30.30 in 10.0 mi SW 8.1 mph - N/A   Mostly Cloudy
2:51 PM 39.9 °F 34.5 °F 25.0 °F 55% 30.31 in 10.0 mi South 8.1 mph - N/A   Mostly Cloudy
3:51 PM 41.0 °F 34.7 °F 23.0 °F 49% 30.31 in 10.0 mi SSW 10.4 mph - N/A   Mostly Cloudy
4:51 PM 39.9 °F 33.9 °F 24.1 °F 53% 30.32 in 10.0 mi South 9.2 mph - N/A   Overcast
5:51 PM 37.9 °F 32.1 °F 27.0 °F 65% 30.32 in 10.0 mi South 8.1 mph - N/A   Mostly Cloudy
6:51 PM 36.0 °F 30.3 °F 27.0 °F 70% 30.32 in 10.0 mi South 6.9 mph - N/A   Mostly Cloudy
7:51 PM 35.1 °F 31.0 °F 27.0 °F 72% 30.33 in 10.0 mi South 4.6 mph - N/A   Mostly Cloudy
8:51 PM 32.0 °F 25.6 °F 26.1 °F 79% 30.32 in 8.0 mi South 6.9 mph - N/A   Mostly Cloudy
9:51 PM 34.0 °F 26.6 °F 27.0 °F 75% 30.30 in 10.0 mi SSE 9.2 mph - N/A   Mostly Cloudy
10:51 PM 34.0 °F 27.2 °F 27.0 °F 75% 30.28 in 10.0 mi SSE 8.1 mph - N/A   Scattered Clouds
11:51 PM 33.1 °F 26.1 °F 27.0 °F 78% 30.27 in 10.0 mi SSE 8.1 mph - N/A   Scattered Clouds